TimeCDT,TemperatureF,Dew PointF,Humidity,Sea Level PressureIn,VisibilityMPH,Wind Direction,Wind SpeedMPH,Gust SpeedMPH,PrecipitationIn,Events,Conditions,WindDirDegrees,DateUTC
12:52 AM,28.0,21.0,75,30.05,10.0,Calm,Calm,-,N/A,,Clear,0,2013-03-12 05:52:00
1:52 AM,27.0,21.0,78,30.06,10.0,SSW,4.6,-,N/A,,Clear,210,2013-03-12 06:52:00
2:52 AM,27.0,21.0,78,30.06,10.0,SSW,3.5,-,N/A,,Clear,210,2013-03-12 07:52:00
3:52 AM,27.0,21.0,78,30.07,10.0,SW,8.1,-,N/A,,Clear,220,2013-03-12 08:52:00
4:52 AM,30.9,21.0,67,30.07,10.0,WNW,3.5,-,N/A,,Clear,300,2013-03-12 09:52:00
5:52 AM,33.1,21.0,61,30.10,10.0,WNW,3.5,-,N/A,,Clear,300,2013-03-12 10:52:00
6:52 AM,32.0,21.9,66,30.12,10.0,Calm,Calm,-,N/A,,Scattered Clouds,0,2013-03-12 11:52:00
7:52 AM,34.0,19.9,56,30.14,10.0,West,3.5,-,N/A,,Scattered Clouds,270,2013-03-12 12:52:00
8:52 AM,36.0,21.9,57,30.17,10.0,West,4.6,-,N/A,,Mostly Cloudy,270,2013-03-12 13:52:00
9:52 AM,39.0,23.0,53,30.19,10.0,WNW,8.1,-,N/A,,Mostly Cloudy,290,2013-03-12 14:52:00
10:52 AM,42.1,25.0,51,30.22,10.0,NW,9.2,-,N/A,,Clear,320,2013-03-12 15:52:00
11:52 AM,46.9,23.0,39,30.22,10.0,NW,9.2,-,N/A,,Clear,320,2013-03-12 16:52:00
12:52 PM,50.0,21.9,33,30.21,10.0,NW,13.8,21.9,N/A,,Clear,320,2013-03-12 17:52:00
1:52 PM,51.1,21.9,32,30.21,10.0,West,16.1,21.9,N/A,,Partly Cloudy,270,2013-03-12 18:52:00
2:52 PM,51.1,24.1,35,30.19,10.0,West,15.0,24.2,N/A,,Mostly Cloudy,280,2013-03-12 19:52:00
3:52 PM,50.0,25.0,38,30.19,10.0,WNW,15.0,25.3,N/A,,Mostly Cloudy,300,2013-03-12 20:52:00
4:52 PM,50.0,27.0,41,30.18,10.0,WNW,16.1,21.9,N/A,,Mostly Cloudy,300,2013-03-12 21:52:00
5:52 PM,48.0,26.1,42,30.19,10.0,WNW,13.8,23.0,N/A,,Mostly Cloudy,300,2013-03-12 22:52:00
6:52 PM,46.9,24.1,41,30.19,10.0,WNW,12.7,-,N/A,,Partly Cloudy,300,2013-03-12 23:52:00
7:52 PM,43.0,21.9,43,30.23,10.0,NW,8.1,-,N/A,,Partly Cloudy,310,2013-03-13 00:52:00
8:52 PM,39.9,21.0,47,30.26,10.0,NW,16.1,-,N/A,,Clear,320,2013-03-13 01:52:00
9:52 PM,37.0,23.0,57,30.29,10.0,NW,12.7,-,N/A,,Clear,320,2013-03-13 02:52:00
10:52 PM,35.1,23.0,61,30.31,10.0,NW,10.4,-,N/A,,Clear,320,2013-03-13 03:52:00
11:52 PM,34.0,23.0,64,30.32,10.0,NW,8.1,-,N/A,,Clear,310,2013-03-13 04:52:00